Location: Jaite
(41.2884°N, 81.5737°W)
Time: 10:39:53
(UTC+00:00)

Cosmos 2227 Rocket - Pass Details

Date: 18 January 2020
Orbit: 841 x 843 km, 71.0° (Epoch: 16 February)

Event Time Altitude Azimuth Distance (km) Brightness Sun altitude
Rises 00:38:01 0° 200° (SSW) 3,383 5.7 -24.8°
Reaches altitude 10° 00:40:26 10° 200° (SSW) 2,452 4.9 -25.3°
Maximum altitude 00:46:04 86° 114° (ESE) 849 2.0 -26.3°
Enters shadow 00:46:42 72° 36° (NE) 887 2.1 -26.4°
